• In Austria
  • List of Countries
  • For 7 days
  • Water Temperature
  • Satellite Maps
  • Weather Map
  • News
  • Weather Widgets
  • user-avatar
    Login

    Hourly Weather Brussels

    Today, 21 February, Wednesday

    Time Temperature Precipitation Wind Pressure Humidity
    00:00 -2°C° 0 mm 3 mps 764 mmHg 80%
    01:00 -2°C° 0 mm 3 mps 764 mmHg 81%
    02:00 -2°C° 0 mm 3 mps 764 mmHg 82%
    03:00 -2°C° 0 mm 3 mps 764 mmHg 83%
    04:00 -2°C° 0 mm 3 mps 764 mmHg 83%
    05:00 -2°C° 0 mm 3 mps 765 mmHg 83%
    06:00 -2°C° 0 mm 3 mps 765 mmHg 86%
    07:00 -2°C° 0 mm 3 mps 765 mmHg 80%
    08:00 -2°C° 0 mm 4 mps 765 mmHg 73%
    09:00 -1°C° 0 mm 4 mps 765 mmHg 67%
    10:00 0°C° 0 mm 4 mps 765 mmHg 62%
    11:00 +3°C° 0 mm 4 mps 765 mmHg 57%
    12:00 +4°C° 0 mm 4 mps 765 mmHg 52%
    13:00 +4°C° 0 mm 4 mps 764 mmHg 52%
    14:00 +4°C° 0 mm 4 mps 764 mmHg 52%
    15:00 +4°C° 0 mm 4 mps 764 mmHg 52%
    16:00 +3°C° 0 mm 4 mps 764 mmHg 57%
    17:00 0°C° 0 mm 4 mps 764 mmHg 63%
    18:00 0°C° 0 mm 3 mps 764 mmHg 68%
    19:00 0°C° 0 mm 3 mps 764 mmHg 70%
    20:00 -1°C° 0 mm 3 mps 764 mmHg 71%
    21:00 -1°C° 0 mm 3 mps 764 mmHg 73%
    22:00 -2°C° 0 mm 3 mps 764 mmHg 74%
    23:00 -2°C° 0 mm 3 mps 764 mmHg 75%

    Tomorrow, 22 February, Thursday

    Time Temperature Precipitation Wind Pressure Humidity
    00:00 -2°C° 0 mm 3 mps 764 mmHg 76%
    01:00 -2°C° 0 mm 3 mps 764 mmHg 76%
    02:00 -3°C° 0 mm 4 mps 764 mmHg 77%
    03:00 -3°C° 0 mm 4 mps 764 mmHg 77%
    04:00 -3°C° 0 mm 4 mps 764 mmHg 76%
    05:00 -3°C° 0 mm 4 mps 764 mmHg 76%
    06:00 -4°C° 0 mm 4 mps 764 mmHg 75%
    07:00 -3°C° 0 mm 4 mps 764 mmHg 69%
    08:00 -2°C° 0 mm 5 mps 764 mmHg 62%
    09:00 -2°C° 0 mm 6 mps 764 mmHg 56%
    10:00 -1°C° 0 mm 6 mps 764 mmHg 51%
    11:00 +1°C° 0 mm 6 mps 764 mmHg 46%
    12:00 +3°C° 0 mm 6 mps 764 mmHg 40%
    13:00 +3°C° 0 mm 6 mps 763 mmHg 41%
    14:00 +3°C° 0 mm 6 mps 763 mmHg 42%
    15:00 +3°C° 0 mm 6 mps 763 mmHg 43%
    16:00 +2°C° 0 mm 5 mps 763 mmHg 48%
    17:00 0°C° 0 mm 5 mps 763 mmHg 54%
    18:00 -1°C° 0 mm 4 mps 763 mmHg 59%
    19:00 -1°C° 0 mm 4 mps 763 mmHg 62%
    20:00 -2°C° 0 mm 4 mps 764 mmHg 64%
    21:00 -2°C° 0 mm 4 mps 764 mmHg 67%
    22:00 -2°C° 0 mm 4 mps 764 mmHg 69%
    23:00 -3°C° 0 mm 4 mps 764 mmHg 70%

    Day after tomorrow, 23 February, Friday

    Time Temperature Precipitation Wind Pressure Humidity
    00:00 -3°C° 0 mm 4 mps 764 mmHg 72%
    01:00 -3°C° 0 mm 4 mps 763 mmHg 73%
    02:00 -3°C° 0 mm 4 mps 763 mmHg 73%
    03:00 -4°C° 0 mm 4 mps 763 mmHg 74%
    04:00 -4°C° 0 mm 4 mps 763 mmHg 74%
    05:00 -4°C° 0 mm 4 mps 763 mmHg 74%
    06:00 -4°C° 0 mm 4 mps 763 mmHg 74%
    07:00 -4°C° 0 mm 5 mps 763 mmHg 67%
    08:00 -2°C° 0 mm 5 mps 763 mmHg 60%
    09:00 -2°C° 0 mm 6 mps 763 mmHg 53%
    10:00 -1°C° 0 mm 6 mps 763 mmHg 48%
    11:00 +1°C° 0 mm 6 mps 763 mmHg 43%
    12:00 +2°C° 0 mm 6 mps 762 mmHg 38%
    13:00 +2°C° 0 mm 6 mps 762 mmHg 37%
    14:00 +2°C° 0 mm 6 mps 762 mmHg 37%
    15:00 +2°C° 0 mm 6 mps 761 mmHg 36%
    16:00 +1°C° 0 mm 6 mps 762 mmHg 39%
    17:00 -1°C° 0 mm 5 mps 762 mmHg 41%
    18:00 -2°C° 0 mm 4 mps 762 mmHg 44%
    19:00 -2°C° 0 mm 5 mps 762 mmHg 43%
    20:00 -4°C° 0 mm 5 mps 762 mmHg 43%
    21:00 -4°C° 0 mm 5 mps 762 mmHg 42%
    22:00 -4°C° 0 mm 5 mps 762 mmHg 42%
    23:00 -5°C° 0 mm 5 mps 762 mmHg 43%

    24 February, Saturday

    Time Temperature Precipitation Wind Pressure Humidity
    00:00 -4°C° 0 mm 4 mps 762 mmHg 44%
    01:00 -5°C° 0 mm 5 mps 762 mmHg 45%
    02:00 -5°C° 0 mm 5 mps 762 mmHg 46%
    03:00 -5°C° 0 mm 5 mps 762 mmHg 47%
    04:00 -5°C° 0 mm 5 mps 762 mmHg 46%
    05:00 -5°C° 0 mm 5 mps 762 mmHg 45%
    06:00 -5°C° 0 mm 5 mps 762 mmHg 45%
    07:00 -4°C° 0 mm 6 mps 762 mmHg 41%
    08:00 -3°C° 0 mm 7 mps 762 mmHg 37%
    09:00 -2°C° 0 mm 7 mps 762 mmHg 33%
    10:00 0°C° 0 mm 7 mps 762 mmHg 32%
    11:00 +1°C° 0 mm 8 mps 762 mmHg 31%
    12:00 +2°C° 0 mm 8 mps 761 mmHg 30%
    13:00 +4°C° 0 mm 8 mps 761 mmHg 32%
    14:00 +4°C° 0 mm 8 mps 761 mmHg 34%
    15:00 +4°C° 0 mm 8 mps 761 mmHg 36%
    16:00 +3°C° 0 mm 7 mps 761 mmHg 41%
    17:00 0°C° 0 mm 7 mps 762 mmHg 47%
    18:00 -1°C° 0 mm 6 mps 762 mmHg 52%
    19:00 -2°C° 0 mm 6 mps 762 mmHg 52%
    20:00 -2°C° 0 mm 7 mps 763 mmHg 52%
    21:00 -3°C° 0 mm 7 mps 763 mmHg 52%
    22:00 -3°C° 0 mm 7 mps 763 mmHg 49%
    23:00 -4°C° 0 mm 6 mps 764 mmHg 47%

    25 February, Sunday

    Time Temperature Precipitation Wind Pressure Humidity
    00:00 -4°C° 0 mm 6 mps 764 mmHg 45%
    01:00 -5°C° 0 mm 6 mps 764 mmHg 42%
    02:00 -5°C° 0 mm 6 mps 764 mmHg 40%
    03:00 -5°C° 0 mm 6 mps 764 mmHg 38%
    04:00 -5°C° 0 mm 6 mps 765 mmHg 36%
    05:00 -7°C° 0 mm 7 mps 765 mmHg 35%
    06:00 -7°C° 0 mm 7 mps 765 mmHg 33%
    07:00 -6°C° 0 mm 7 mps 765 mmHg 32%
    08:00 -6°C° 0 mm 8 mps 766 mmHg 31%
    09:00 -5°C° 0 mm 8 mps 766 mmHg 29%
    10:00 -4°C° 0 mm 8 mps 766 mmHg 27%
    11:00 -2°C° 0 mm 8 mps 766 mmHg 25%
    12:00 -1°C° 0 mm 8 mps 766 mmHg 23%
    13:00 -1°C° 0 mm 8 mps 766 mmHg 24%
    14:00 -1°C° 0 mm 7 mps 766 mmHg 24%
    15:00 -1°C° 0 mm 7 mps 766 mmHg 24%
    16:00 -2°C° 0 mm 7 mps 766 mmHg 26%
    17:00 -4°C° 0 mm 6 mps 767 mmHg 28%
    18:00 -5°C° 0 mm 6 mps 767 mmHg 30%
    19:00 -5°C° 0 mm 6 mps 767 mmHg 31%
    20:00 -6°C° 0 mm 6 mps 768 mmHg 32%
    21:00 -6°C° 0 mm 6 mps 768 mmHg 32%
    22:00 -6°C° 0 mm 5 mps 768 mmHg 35%
    23:00 -7°C° 0 mm 5 mps 769 mmHg 37%

    26 February, Monday

    Time Temperature Precipitation Wind Pressure Humidity
    00:00 -7°C° 0 mm 5 mps 769 mmHg 39%
    01:00 -7°C° 0 mm 5 mps 769 mmHg 40%
    02:00 -7°C° 0 mm 4 mps 769 mmHg 42%
    03:00 -7°C° 0 mm 4 mps 769 mmHg 43%
    04:00 -7°C° 0 mm 4 mps 769 mmHg 44%
    05:00 -7°C° 0 mm 5 mps 769 mmHg 44%
    06:00 -7°C° 0 mm 5 mps 769 mmHg 44%
    07:00 -7°C° 0 mm 5 mps 769 mmHg 41%
    08:00 -6°C° 0 mm 6 mps 769 mmHg 38%
    09:00 -6°C° 0 mm 6 mps 769 mmHg 35%
    10:00 -5°C° 0 mm 6 mps 769 mmHg 32%
    11:00 -4°C° 0 mm 6 mps 768 mmHg 30%
    12:00 -3°C° 0 mm 6 mps 768 mmHg 28%
    13:00 -3°C° 0 mm 6 mps 768 mmHg 29%
    14:00 -3°C° 0 mm 6 mps 767 mmHg 29%
    15:00 -3°C° 0 mm 6 mps 767 mmHg 30%
    16:00 -4°C° 0 mm 5 mps 767 mmHg 35%
    17:00 -5°C° 0 mm 5 mps 767 mmHg 40%
    18:00 -5°C° 0 mm 4 mps 767 mmHg 44%
    19:00 -5°C° 0 mm 4 mps 767 mmHg 46%
    20:00 -5°C° 0 mm 4 mps 767 mmHg 48%
    21:00 -7°C° 0 mm 4 mps 767 mmHg 49%
    22:00 -6°C° 0 mm 3 mps 767 mmHg 51%
    23:00 -6°C° 0 mm 3 mps 767 mmHg 52%
    Show more